Weather History for KSSC - November, 2013

Change the Weather History Date:

Saturday, November 23, 2013

  Actual Average Record
Temperature  
Mean Temperature 57 °F -  
Max Temperature 64 °F - - ()
Min Temperature 47 °F - - ()
Degree Days  
Heating Degree Days 8    
Growing Degree Days 7 (Base 50)    
Moisture  
Dew Point 59 °F    
Average Humidity 91    
Maximum Humidity 100    
Minimum Humidity 56    
Precipitation  
Precipitation 0.10 in - - ()
Sea Level Pressure  
Sea Level Pressure 30.07 in    
Wind  
Wind Speed 5 mph (NW)    
Max Wind Speed 12 mph    
Max Gust Speed -    
Visibility 8 miles    
Events Rain    
T = Trace of Precipitation, MM = Missing Value Source: NWS Daily Summary

Daily Weather History Graph

Daily Weather History Graph

Search for Another Location

Airport or City:

Trip Planner

Search our weather history database for the weather conditions in past years. The results will help you decide how hot, cold, wet, or windy it might be!

Date:

Astronomy

Nov. 23, 2013 Rise Set
Actual Time 7:02 AM EST 5:14 PM EST
Civil Twilight 6:35 AM EST 5:41 PM EST
Nautical Twilight 6:04 AM EST 6:12 PM EST
Astronomical Twilight 5:34 AM EST 6:41 PM EST
Moon 10:35 PM EST (11/23) 11:23 AM EST (11/23)
Length of Visible Light 11h 06m
Length of Day
10h 12m
Waning Gibbous, 70% of the Moon is Illuminated
Nov 23
Waning Gibbous
Nov 25
Last Quarter
Dec 2
New
Dec 9
First Quarter
Dec 17
Full

Hourly Weather History & Observations

Time (EST) Temp. Dew Point Humidity Pressure Visibility Wind Dir Wind Speed Gust Speed Precip Events Conditions
12:58 AM 62.1 °F 58.8 °F 89% 30.11 in 10.0 mi SSW 5.8 mph - N/A   Overcast
1:58 AM 61.5 °F 58.8 °F 91% 30.10 in 10.0 mi SW 3.5 mph - N/A   Mostly Cloudy
2:58 AM 61.3 °F 59.0 °F 92% 30.10 in 10.0 mi WSW 3.5 mph - N/A   Overcast
2:59 AM 60.8 °F 59.0 °F 94% 30.10 in 9.0 mi WSW 4.6 mph - N/A Rain Light Rain
3:04 AM 60.8 °F 59.0 °F 94% 30.10 in 7.0 mi WSW 4.6 mph - N/A Rain Light Rain
3:09 AM 62.6 °F 59.0 °F 88% 30.09 in 7.0 mi SW 4.6 mph - N/A Rain Light Rain
3:18 AM 60.8 °F 59.0 °F 94% 30.09 in 10.0 mi SSW 3.5 mph - N/A   Mostly Cloudy
3:58 AM 61.5 °F 59.7 °F 94% 30.08 in 10.0 mi SSW 3.5 mph - 0.00 in   Overcast
4:33 AM 62.6 °F 60.8 °F 94% 30.08 in 9.0 mi West 5.8 mph - N/A   Overcast
4:43 AM 62.6 °F 60.8 °F 94% 30.08 in 9.0 mi WSW 4.6 mph - N/A   Light Drizzle
4:58 AM 62.2 °F 60.4 °F 94% 30.08 in 6.0 mi West 4.6 mph - 0.00 in Rain Light Rain
5:03 AM 62.6 °F 60.8 °F 94% 30.08 in 5.0 mi West 4.6 mph - N/A Rain Light Rain
5:07 AM 62.6 °F 60.8 °F 94% 30.08 in 5.0 mi West 3.5 mph - N/A   Light Drizzle
5:22 AM 62.6 °F 60.8 °F 94% 30.08 in 2.5 mi West 3.5 mph - N/A Rain Light Rain
5:32 AM 62.6 °F 60.8 °F 94% 30.08 in 3.0 mi WNW 3.5 mph - N/A Rain Light Rain
5:42 AM 62.6 °F 60.8 °F 94% 30.08 in 3.0 mi WNW 3.5 mph - N/A Rain Light Rain
5:52 AM 62.6 °F 60.8 °F 94% 30.08 in 3.0 mi WNW 2.3 mph - N/A Rain Light Rain
5:58 AM 61.7 °F 60.6 °F 96% 30.08 in 4.0 mi Calm Calm - 0.05 in Rain Light Rain
6:03 AM 62.6 °F 60.8 °F 94% 30.07 in 4.0 mi SE 1.2 mph - N/A Rain Light Rain
6:18 AM 62.6 °F 60.8 °F 94% 30.08 in 4.0 mi WSW 1.2 mph - N/A   Light Drizzle
6:19 AM 62.6 °F 60.8 °F 94% 30.08 in 4.0 mi SW 1.2 mph - N/A   Overcast
6:29 AM 60.8 °F 60.8 °F 100% 30.08 in 6.0 mi SW 3.5 mph - N/A   Overcast
6:44 AM 62.6 °F 60.8 °F 94% 30.08 in 7.0 mi WSW 3.5 mph - N/A   Overcast
6:54 AM 62.6 °F 60.8 °F 94% 30.08 in 10.0 mi Variable 1.2 mph - N/A   Overcast
6:58 AM 61.7 °F 60.8 °F 97% 30.08 in 9.0 mi SW 2.3 mph - 0.02 in   Overcast
7:03 AM 62.6 °F 60.8 °F 94% 30.08 in 7.0 mi SSW 3.5 mph - N/A   Overcast
7:18 AM 62.6 °F 60.8 °F 94% 30.08 in 6.0 mi Calm Calm - N/A   Overcast
7:23 AM 62.6 °F 60.8 °F 94% 30.08 in 7.0 mi South 2.3 mph - N/A   Overcast
7:58 AM 62.1 °F 61.2 °F 97% 30.09 in 8.0 mi West 1.2 mph - N/A   Overcast
8:00 AM 62.6 °F 60.8 °F 94% 30.09 in 9.0 mi West 2.3 mph - N/A   Overcast
8:08 AM 62.6 °F 60.8 °F 94% 30.09 in 10.0 mi SW 2.3 mph - N/A Rain Light Rain
8:13 AM 62.6 °F 60.8 °F 94% 30.09 in 8.0 mi SW 2.3 mph - N/A   Light Drizzle
8:23 AM 62.6 °F 60.8 °F 94% 30.08 in 6.0 mi West 1.2 mph - N/A   Light Drizzle
8:27 AM 62.6 °F 60.8 °F 94% 30.08 in 5.0 mi WSW 1.2 mph - N/A   Overcast
8:50 AM 62.6 °F 60.8 °F 94% 30.08 in 6.0 mi WNW 2.3 mph - N/A   Light Drizzle
8:58 AM 62.8 °F 61.7 °F 96% 30.09 in 4.0 mi West 1.2 mph - 0.01 in Rain Light Rain
9:58 AM 62.6 °F 60.8 °F 94% 30.09 in 6.0 mi WNW 3.5 mph - 0.01 in   Light Drizzle
10:07 AM 62.6 °F 60.8 °F 94% 30.09 in 6.0 mi WNW 4.6 mph - N/A   Overcast
10:20 AM 62.6 °F 60.8 °F 94% 30.09 in 10.0 mi NW 5.8 mph - N/A   Light Drizzle
10:29 AM 62.6 °F 62.6 °F 100% 30.09 in 10.0 mi NNW 4.6 mph - N/A   Overcast
10:39 AM 62.6 °F 62.6 °F 100% 30.09 in 10.0 mi NW 5.8 mph - N/A   Overcast
10:44 AM 62.6 °F 60.8 °F 94% 30.09 in 10.0 mi NW 5.8 mph - N/A   Overcast
10:54 AM 62.6 °F 60.8 °F 94% 30.09 in 10.0 mi NW 5.8 mph - N/A   Overcast
10:58 AM 62.6 °F 60.8 °F 94% 30.09 in 10.0 mi NW 4.6 mph - 0.00 in   Overcast
11:43 AM 62.6 °F 60.8 °F 94% 30.07 in 10.0 mi North 6.9 mph - N/A   Overcast
11:58 AM 63.9 °F 61.2 °F 91% 30.06 in 10.0 mi NNE 8.1 mph - N/A   Overcast
12:08 PM 64.4 °F 60.8 °F 88% 30.05 in 10.0 mi NNE 8.1 mph - N/A   Overcast
12:13 PM 64.4 °F 60.8 °F 88% 30.05 in 10.0 mi NNE 9.2 mph - N/A   Overcast
12:18 PM 64.4 °F 60.8 °F 88% 30.05 in 10.0 mi NNE 10.4 mph - N/A   Overcast
12:23 PM 64.4 °F 60.8 °F 88% 30.05 in 10.0 mi NE 8.1 mph - N/A   Overcast
12:38 PM 64.4 °F 60.8 °F 88% 30.04 in 10.0 mi NE 8.1 mph - N/A   Overcast
12:43 PM 64.4 °F 60.8 °F 88% 30.04 in 10.0 mi NE 8.1 mph - N/A   Overcast
12:48 PM 64.4 °F 60.8 °F 88% 30.04 in 10.0 mi NE 10.4 mph - N/A   Overcast
12:58 PM 63.1 °F 59.9 °F 89% 30.04 in 10.0 mi NE 8.1 mph - N/A   Overcast
1:18 PM 62.6 °F 59.0 °F 88% 30.04 in 10.0 mi NNE 4.6 mph - N/A   Overcast
1:53 PM 62.6 °F 59.0 °F 88% 30.03 in 10.0 mi NNE 8.1 mph - N/A   Overcast
1:58 PM 63.1 °F 59.2 °F 87% 30.04 in 10.0 mi NNE 10.4 mph - N/A   Overcast
2:03 PM 62.6 °F 59.0 °F 88% 30.03 in 10.0 mi NNE 8.1 mph - N/A   Overcast
2:34 PM 62.6 °F 59.0 °F 88% 30.02 in 10.0 mi ENE 11.5 mph - N/A   Light Drizzle
2:39 PM 60.8 °F 59.0 °F 94% 30.02 in 10.0 mi NE 8.1 mph - N/A   Light Drizzle
2:45 PM 60.8 °F 57.2 °F 88% 30.03 in 10.0 mi NE 9.2 mph - N/A   Overcast
2:48 PM 60.8 °F 57.2 °F 88% 30.02 in 10.0 mi NE 8.1 mph - N/A   Light Drizzle
2:58 PM 60.3 °F 57.4 °F 90% 30.03 in 10.0 mi NE 8.1 mph - 0.00 in   Light Drizzle
3:03 PM 60.8 °F 57.2 °F 88% 30.03 in 10.0 mi ENE 8.1 mph - N/A   Overcast
3:28 PM 59.0 °F 57.2 °F 94% 30.04 in 10.0 mi ENE 4.6 mph - N/A   Overcast
3:36 PM 59.0 °F 57.2 °F 94% 30.04 in 10.0 mi ENE 5.8 mph - N/A   Light Drizzle
3:41 PM 59.0 °F 57.2 °F 94% 30.04 in 8.0 mi NE 5.8 mph - N/A Rain Light Rain
3:58 PM 58.6 °F 56.5 °F 93% 30.04 in 5.0 mi ENE 3.5 mph - 0.01 in Rain Light Rain
4:08 PM 59.0 °F 57.2 °F 94% 30.04 in 10.0 mi ENE 2.3 mph - N/A   Overcast
4:58 PM 58.5 °F 56.5 °F 93% 30.04 in 10.0 mi ENE 2.3 mph - 0.00 in   Overcast
5:03 PM 59.0 °F 57.2 °F 94% 30.05 in 10.0 mi NE 2.3 mph - N/A   Overcast
5:58 PM 58.6 °F 52.5 °F 80% 30.08 in 10.0 mi North 6.9 mph - N/A   Overcast
6:58 PM 58.1 °F 50.2 °F 75% 30.09 in 10.0 mi North 2.3 mph - N/A   Overcast
7:58 PM 57.6 °F 49.6 °F 75% 30.09 in 10.0 mi NNW 2.3 mph - N/A   Overcast
8:58 PM 56.5 °F 49.5 °F 77% 30.09 in 10.0 mi North 5.8 mph - N/A   Overcast
9:58 PM 54.3 °F 42.8 °F 65% 30.12 in 10.0 mi North 10.4 mph - N/A   Mostly Cloudy
10:58 PM 50.9 °F 36.0 °F 57% 30.14 in 10.0 mi North 8.1 mph - N/A   Clear
11:58 PM 47.7 °F 32.7 °F 56% 30.16 in 10.0 mi North 5.8 mph - N/A   Clear